[[{"header":{"parameterUnit":"m.s-1","parameterCategory":1,"la1":30.2991,"la2":30.254,"lo1":-89.0895,"lo2":-89.0444,"dy":0.0017,"dx":0.0017,"nx":28,"ny":28,"refTime":"2026-01-06T03:00:00:Z","depth":0,"parameterNumber":2,"parameterNumberName":"U-component_of_WINDS"},"data":[0,0,0,0,0,0,0,0,0,0,0,0,0,0,0,0,0,0,0,0,0,0,0,0,0,0,0,0,0,0,0,0,0,0,0,0,0,0,0,0,0,0,0,0,0,0,0,0,0,0,0,0,0,0,0,0,0,0,0.0048,0.0049,0,0.0123,0.0124,0.0125,0.0154,0.0154,0.0154,0.0154,0.0232,0.0235,0.0237,0,0,0,0,0,0,0,0,0,0,0,0,0,-0.007,-0.0068,0.0048,0.0049,0.005,0.0123,0.0124,0.0125,0.0154,0.0154,0.0154,0.0153,0.0232,0.0234,0.0237,0,0,0,0,0,0,0,0,0,0,0,0,0,-0.0009,-0.0068,0.0048,0.0073,0.0076,0.0123,0.0124,0.0126,0.0154,0.0154,0.0154,0.0153,0.0231,0.0234,0.0237,0.0266,0,0,0.0248,0.025,0,0,0,0,0,0,0,0,-0.0013,-0.0005,0.0068,0.0071,0.0075,0.0129,0.0112,0.0173,0.0154,0.0125,0.0154,0.0153,0.0198,0.0204,0.0219,0.0269,0.0273,0.0248,0.025,0.0252,0.0253,0,0,0,0,0,0,0,-0.0017,-0.0008,0.0078,0.0069,0.0073,0.0081,0.0089,0.0123,0.0162,0.0127,0.0129,0.0138,0.02,0.0216,0.0221,0.0274,0.0248,0.0251,0.0253,0.0255,0.0351,0.0351,0,0,0,0,0,0,-0.0026,-0.0012,0.0075,0.008,0.0029,0.0083,0.0093,0.0112,0.0162,0.0169,0.0138,0.0139,0.021,0.0217,0.0224,0.0261,0.0252,0.0255,0.0257,0.035,0.0351,0.0351,0,0,0,0,0,0,-0.0028,-0.0018,0.0072,0.0035,0.0047,0.0086,0.0107,0.0114,0.013,0.017,0.0178,0.0147,0.021,0.0219,0.0255,0.0264,0.0257,0.026,0.035,0.035,0.0351,0.0334,0,0,0,0,0,0,-0.0032,-0.0019,-0.0008,0.0035,0.0049,0.0101,0.0108,0.0115,0.0135,0.0137,0.0181,0.0188,0.0211,0.025,0.0258,0.0269,0.0263,0.0349,0.035,0.0351,0.0334,0.0334,0.0334,0,0,0,0,0,-0.0036,-0.0016,-0.0008,0.0002,0.0063,0.0102,0.011,0.0135,0.0136,0.0147,0.0173,0.0186,0.0261,0.0253,0.0263,0.0275,0.0349,0.035,0.0351,0.0334,0.0334,0.0334,0,0,0,0,0,0,-0.0059,-0.001,-0.0,0.0034,0.0063,0.0107,0.0122,0.0135,0.0165,0.0166,0.0196,0.0206,0.0239,0.026,0.025,0.0304,0.0306,0.0309,0.029,0.029,0.029,0.0285,0.0265,0,0,0,0,0,-0.006,-0.0033,0.0008,0.0035,0.0049,0.0083,0.0101,0.0118,0.015,0.0163,0.0191,0.0222,0.0253,0.0272,0.0303,0.0337,0.0347,0.0349,0.0349,0.0349,0.0352,0.0372,0.0374,0.0355,0.0355,0.0355,0,0,-0.0062,-0.0032,-0.0016,0.0031,0.0056,0.0084,0.0093,0.0122,0.0143,0.0167,0.0203,0.0225,0.0261,0.0296,0.0313,0.0315,0.0359,0.0351,0.035,0.0353,0.0373,0.0375,0.0376,0.0355,0.0355,0.0355,0,0,-0.0051,-0.0026,-0.0001,0.0024,0.0061,0.0084,0.0089,0.0131,0.0146,0.0182,0.0201,0.0226,0.0278,0.0304,0.0323,0.0343,0.0357,0.0352,0.0353,0.0372,0.0374,0.0375,0.0383,0.0385,0.0355,0.0355,0.0355,0,-0.0058,-0.0015,0.0011,0.0039,0.0059,0.0082,0.0108,0.013,0.0176,0.019,0.0191,0.0256,0.0283,0.0324,0.0329,0.0344,0.0352,0.0348,0.0371,0.0373,0.0375,0.0382,0.0385,0.0354,0.0354,0.0354,0.0354,0,-0.0025,0.0004,0.0019,0.0063,0.0085,0.0112,0.0142,0.0161,0.0176,0.0199,0.0235,0.0267,0.0304,0.0315,0.033,0.0359,0.0359,0.0365,0.0367,0.0375,0.0383,0.0386,0.0353,0.0353,0.0353,0.0354,0,0,-0.0026,0.0031,0.0036,0.0056,0.0099,0.0122,0.015,0.0186,0.0202,0.0233,0.0257,0.03,0.0307,0.0329,0.0347,0.0363,0.0378,0.0368,0.0369,0.0369,0.0412,0.0407,0.041,0.0387,0.0387,0.0388,0.0409,0,-0.0009,0.0042,0.0066,0.0106,0.0134,0.0155,0.0179,0.0208,0.023,0.0256,0.028,0.031,0.0316,0.0329,0.0346,0.0372,0.0387,0.0371,0.041,0.0411,0.0401,0.0414,0.041,0.0428,0.0412,0.0413,0.0413,0,0.0018,0.0048,0.0091,0.0131,0.0143,0.0165,0.02,0.0225,0.0258,0.0273,0.0297,0.0314,0.0345,0.0344,0.0387,0.0376,0.0393,0.0408,0.0409,0.0415,0.0413,0.0421,0.0435,0.0438,0.0418,0.0418,0.0417,0,0.0014,0.0065,0.0098,0.0114,0.0161,0.0176,0.0196,0.0229,0.0249,0.028,0.0293,0.0327,0.0346,0.0372,0.0398,0.0395,0.0438,0.044,0.0452,0.0451,0.0461,0.046,0.0479,0.047,0.047,0.047,0.047,0,0.0031,0.0057,0.0097,0.0117,0.0146,0.0174,0.0202,0.0224,0.0253,0.0278,0.0298,0.0321,0.0354,0.0381,0.0402,0.0434,0.0442,0.0455,0.046,0.0454,0.0452,0.0466,0.0466,0.0471,0.0471,0.0471,0.0471,0,0.0032,0.006,0.0097,0.0138,0.0149,0.0169,0.0204,0.0225,0.0247,0.0278,0.0287,0.0322,0.0355,0.0383,0.0427,0.044,0.0474,0.048,0.0463,0.0466,0.0477,0.0475,0.0506,0.0511,0.0498,0.0498,0.0498,0,0.0042,0.0062,0.0105,0.0123,0.0143,0.0172,0.0193,0.022,0.0241,0.0281,0.0296,0.0331,0.036,0.0411,0.0441,0.0474,0.0482,0.049,0.0487,0.048,0.0483,0.0482,0.0484,0.049,0.049,0.049,0.049,0,0.0056,0.0068,0.0097,0.0131,0.0155,0.0183,0.0212,0.0225,0.0259,0.0281,0.0315,0.0337,0.0381,0.0416,0.0452,0.0473,0.0488,0.0491,0.0496,0.0489,0.0479,0.0485,0.0464,0.049,0.049,0.049,0.049,0.049,0.0062,0.0081,0.0115,0.0146,0.0171,0.0197,0.0218,0.0243,0.0271,0.0309,0.0324,0.0359,0.0392,0.0442,0.0463,0.0491,0.0493,0.05,0.0502,0.0503,0.0503,0.0473,0.0498,0.0498,0.0498,0.0498,0.0498,0,0.0078,0.01,0.0129,0.0168,0.0193,0.0204,0.0236,0.0256,0.0287,0.0316,0.0344,0.0383,0.0416,0.0448,0.0483,0.0499,0.0506,0.0507,0.0507,0.0511,0.0498,0.0491,0.05,0.05,0.05,0.05,0.05,0.05,0.0089,0.0122,0.0138,0.0184,0.0206,0.0241,0.0258,0.0282,0.0306,0.0349,0.0376,0.0396,0.0427,0.0464,0.0495,0.0504,0.0516,0.0515,0.0525,0.0513,0.0512,0.0512,0.0505,0.0517,0.0517,0.0536,0.0536,0.0536]},{"header":{"parameterUnit":"m.s-1","parameterCategory":1,"la1":30.2991,"la2":30.254,"lo1":-89.0895,"lo2":-89.0444,"dy":0.0017,"dx":0.0017,"nx":28,"ny":28,"refTime":"2026-01-06T03:00:00:Z","depth":0,"parameterNumber":3,"parameterNumberName":"V-component_of_WINDS"},"data":[0,0,0,0,0,0,0,0,0,0,0,0,0,0,0,0,0,0,0,0,0,0,0,0,0,0,0,0,0,0,0,0,0,0,0,0,0,0,0,0,0,0,0,0,0,0,0,0,0,0,0,0,0,0,0,0,0,0,3.3448,3.345,0,3.3618,3.362,3.3622,3.3677,3.3677,3.3676,3.3675,3.3846,3.3851,3.3856,0,0,0,0,0,0,0,0,0,0,0,0,0,3.317,3.3174,3.3448,3.345,3.3452,3.3618,3.362,3.3622,3.3678,3.3677,3.3676,3.3675,3.3844,3.385,3.3857,0,0,0,0,0,0,0,0,0,0,0,0,0,3.331,3.3176,3.3448,3.35,3.3506,3.3617,3.362,3.3623,3.3678,3.3677,3.3676,3.3675,3.3842,3.385,3.3858,3.3928,0,0,3.3881,3.3885,0,0,0,0,0,0,0,0,3.3302,3.332,3.349,3.3497,3.3504,3.3626,3.3584,3.3725,3.3678,3.3613,3.3675,3.3674,3.3773,3.3787,3.3821,3.3936,3.3943,3.3882,3.3887,3.389,3.3892,0,0,0,0,0,0,0,3.3292,3.3313,3.3515,3.3493,3.3501,3.3514,3.3533,3.3611,3.3697,3.3618,3.3623,3.3642,3.3777,3.3813,3.3825,3.3946,3.3882,3.3889,3.3894,3.3897,3.4129,3.413,0,0,0,0,0,0,3.3274,3.3305,3.351,3.352,3.3398,3.352,3.3541,3.3587,3.3696,3.3712,3.3643,3.3644,3.38,3.3816,3.3831,3.3923,3.389,3.3898,3.3902,3.4128,3.4129,3.4131,0,0,0,0,0,0,3.3268,3.3292,3.3503,3.3414,3.3442,3.3526,3.3578,3.3591,3.3628,3.3715,3.373,3.3665,3.38,3.382,3.3904,3.393,3.3901,3.3908,3.4126,3.4128,3.413,3.4106,0,0,0,0,0,0,3.3259,3.3289,3.3317,3.3414,3.3446,3.3574,3.3579,3.3596,3.3642,3.3645,3.3739,3.3754,3.3801,3.3892,3.3912,3.394,3.3914,3.4124,3.4127,3.4129,3.4105,3.4107,3.4109,0,0,0,0,0,3.3249,3.3302,3.3318,3.3343,3.3483,3.3575,3.3593,3.3647,3.3643,3.3673,3.3728,3.3751,3.3923,3.39,3.3923,3.3954,3.4123,3.4126,3.4129,3.4104,3.4107,3.4109,0,0,0,0,0,0,3.3205,3.3316,3.3335,3.3421,3.3488,3.3584,3.3622,3.3648,3.3717,3.3717,3.3779,3.38,3.388,3.3925,3.3897,3.4029,3.4024,3.4032,3.3997,3.4,3.4002,3.3991,3.3921,0,0,0,0,0,3.3206,3.3272,3.3364,3.3431,3.3464,3.3537,3.3579,3.3615,3.3687,3.3715,3.3777,3.3845,3.3915,3.396,3.4028,3.4111,3.4133,3.4143,3.4145,3.4146,3.4153,3.4202,3.4209,3.4142,3.4142,3.4142,0,0,3.3207,3.3276,3.3313,3.3424,3.3481,3.3548,3.3561,3.363,3.3681,3.3725,3.381,3.3857,3.3937,3.4021,3.4061,3.4061,3.4176,3.415,3.4151,3.4157,3.4206,3.4213,3.4218,3.4144,3.4144,3.4143,0,0,3.3244,3.3302,3.3366,3.3422,3.3508,3.3556,3.3571,3.3664,3.3698,3.3783,3.3819,3.3878,3.3997,3.4053,3.4097,3.4156,3.418,3.4176,3.4188,3.4235,3.4241,3.4246,3.4269,3.4277,3.4183,3.4183,3.4182,0,3.3235,3.3339,3.3395,3.3464,3.3512,3.3556,3.3622,3.3673,3.3776,3.3808,3.3806,3.3958,3.4014,3.4113,3.4128,3.4161,3.4181,3.4167,3.4235,3.4241,3.4246,3.427,3.4278,3.4182,3.4182,3.4182,3.4182,0,3.3324,3.3395,3.3436,3.3537,3.3589,3.3655,3.3721,3.3768,3.3798,3.3847,3.3934,3.4003,3.4088,3.4113,3.4143,3.4217,3.4215,3.4223,3.422,3.4251,3.4274,3.4283,3.4181,3.4181,3.4181,3.4181,0,0,3.334,3.3472,3.3486,3.3533,3.3631,3.3687,3.3754,3.3839,3.3878,3.3947,3.4007,3.4106,3.4115,3.4165,3.4202,3.4243,3.4288,3.4247,3.4249,3.4254,3.4376,3.4372,3.4381,3.4303,3.4305,3.4307,3.4371,0,3.3392,3.3519,3.3571,3.3673,3.374,3.3782,3.3842,3.3908,3.3955,3.4018,3.4069,3.414,3.4145,3.4176,3.4218,3.4274,3.4314,3.4269,3.4361,3.4363,3.4343,3.4393,3.4388,3.4445,3.438,3.4381,3.4382,0,3.3471,3.3543,3.3651,3.3743,3.3773,3.3826,3.3908,3.3968,3.4043,3.4074,3.4131,3.4165,3.4238,3.4228,3.4331,3.4299,3.4339,3.4372,3.4376,3.4389,3.4377,3.441,3.4464,3.4474,3.4397,3.4395,3.4394,0,3.3475,3.3599,3.368,3.3719,3.3827,3.3863,3.3909,3.3984,3.4032,3.4103,3.4135,3.4213,3.4256,3.4315,3.437,3.4357,3.4468,3.4462,3.4497,3.4496,3.452,3.4519,3.4585,3.4541,3.4541,3.4541,3.454,0,3.353,3.3595,3.3684,3.3735,3.3809,3.3869,3.394,3.399,3.4056,3.4117,3.4156,3.4212,3.428,3.4344,3.4387,3.4466,3.4484,3.4512,3.4524,3.4511,3.4508,3.454,3.4539,3.4543,3.4542,3.4542,3.4542,0,3.3549,3.3611,3.3703,3.3798,3.3823,3.3874,3.3955,3.4006,3.4054,3.413,3.4151,3.4227,3.4305,3.4365,3.4465,3.4494,3.4579,3.459,3.4555,3.4561,3.4594,3.4591,3.4685,3.4702,3.4644,3.4644,3.4644,0,3.3581,3.3633,3.3734,3.3778,3.3825,3.3895,3.3945,3.4004,3.4054,3.4145,3.4185,3.4266,3.4334,3.4456,3.452,3.4597,3.4612,3.4639,3.4624,3.461,3.4616,3.4613,3.462,3.4642,3.4643,3.4643,3.4643,0,3.3633,3.3662,3.3732,3.3814,3.3872,3.3939,3.4006,3.404,3.4112,3.4165,3.4247,3.43,3.4403,3.4484,3.4568,3.4615,3.4642,3.4647,3.466,3.4649,3.4628,3.4643,3.4563,3.4645,3.4645,3.4645,3.4645,3.4645,3.3663,3.3712,3.3791,3.3868,3.3926,3.3988,3.4041,3.4096,3.4165,3.4256,3.4286,3.437,3.4445,3.4561,3.4609,3.4675,3.4676,3.4694,3.4699,3.4703,3.4703,3.4615,3.469,3.469,3.469,3.469,3.469,0,3.372,3.3773,3.3843,3.3938,3.3999,3.4018,3.4094,3.4144,3.4218,3.4286,3.4353,3.4447,3.4525,3.4595,3.4676,3.4716,3.473,3.4735,3.4735,3.4746,3.4696,3.4679,3.4723,3.4723,3.4723,3.4723,3.4723,3.4723,3.3757,3.3842,3.3879,3.3992,3.4045,3.4129,3.4171,3.4229,3.4284,3.4387,3.4453,3.4498,3.4568,3.4654,3.4727,3.4746,3.4775,3.4778,3.4799,3.4753,3.4749,3.4745,3.4729,3.4783,3.4783,3.4844,3.4844,3.4845]}]]